,,Stat6,,Stat2,,Stat8,,Stat9,,Stat10,,Wind1,,Wind1,
time,status,PA1M_AVG,status,PR1M_SUM,status,RH1M_AVG,status,SR1M_AVG,status,TA1M_AVG,status,W1dAve1m,status,W1sAve1m,
2007-05-17, 00:00:00,VALID,918.711,VALID,0,VALID,100,VALID,-0.0849042,VALID,20.6776,VALID,94,VALID,0,
2007-05-17, 00:01:00,VALID,918.692,VALID,0,VALID,100,VALID,-0.0849042,VALID,20.6939,VALID,94,VALID,0,
2007-05-17, 00:02:00,VALID,918.667,VALID,0,VALID,100,VALID,-0.101885,VALID,20.7228,VALID,94,VALID,0,
2007-05-17, 00:03:00,VALID,918.659,VALID,0,VALID,100,VALID,-0.101885,VALID,20.7915,VALID,94,VALID,0,
2007-05-17, 00:04:00,VALID,918.639,VALID,0,VALID,100,VALID,-0.0849042,VALID,20.8042,VALID,94,VALID,0,
2007-05-17, 00:05:00,VALID,918.618,VALID,0,VALID,100,VALID,-0.101885,VALID,20.8075,VALID,94,VALID,0,
2007-05-17, 00:06:00,VALID,918.608,VALID,0,VALID,100,VALID,-0.101885,VALID,20.8104,VALID,94,VALID,0,
2007-05-17, 00:07:00,VALID,918.577,VALID,0,VALID,100,VALID,-0.0679233,VALID,20.8167,VALID,94,VALID,0,
2007-05-17, 00:08:00,VALID,918.555,VALID,0,VALID,100,VALID,-0.101885,VALID,20.8269,VALID,94,VALID,0,
2007-05-17, 00:09:00,VALID,918.528,VALID,0,VALID,100,VALID,-0.101885,VALID,20.8237,VALID,94,VALID,0,
2007-05-17, 00:10:00,VALID,918.495,VALID,0,VALID,100,VALID,-0.101885,VALID,20.8047,VALID,94,VALID,0,
2007-05-17, 00:11:00,VALID,918.466,VALID,0,VALID,100,VALID,-0.0679233,VALID,20.7945,VALID,94,VALID,0,
2007-05-17, 00:12:00,VALID,918.458,VALID,0,VALID,100,VALID,-0.0509425,VALID,20.7969,VALID,94,VALID,0,
2007-05-17, 00:13:00,VALID,918.424,VALID,0,VALID,100,VALID,-0.0679233,VALID,20.791,VALID,94,VALID,0,
2007-05-17, 00:14:00,VALID,918.413,VALID,0,VALID,100,VALID,-0.118866,VALID,20.7912,VALID,94,VALID,0,
2007-05-17, 00:15:00,VALID,918.406,VALID,0,VALID,100,VALID,-0.0849042,VALID,20.7518,VALID,94,VALID,0,
2007-05-17, 00:16:00,VALID,918.393,VALID,0,VALID,100,VALID,-0.0849042,VALID,20.7455,VALID,94,VALID,0,
2007-05-17, 00:17:00,VALID,918.374,VALID,0,VALID,100,VALID,-0.101885,VALID,20.7585,VALID,94,VALID,0,
2007-05-17, 00:18:00,VALID,918.365,VALID,0,VALID,100,VALID,-0.0849042,VALID,20.7783,VALID,94,VALID,0,
2007-05-17, 00:19:00,VALID,918.362,VALID,0,VALID,100,VALID,-0.0849042,VALID,20.7453,VALID,94,VALID,0,
2007-05-17, 00:20:00,VALID,918.349,VALID,0,VALID,100,VALID,-0.0849042,VALID,20.7296,VALID,94,VALID,0,
2007-05-17, 00:21:00,VALID,918.34,VALID,0,VALID,100,VALID,-0.0679233,VALID,20.7458,VALID,94,VALID,0,
2007-05-17, 00:22:00,VALID,918.341,VALID,0,VALID,100,VALID,-0.101885,VALID,20.7812,VALID,94,VALID,0,
2007-05-17, 00:23:00,VALID,918.333,VALID,0,VALID,100,VALID,-0.0849042,VALID,20.8332,VALID,94,VALID,0,
2007-05-17, 00:24:00,VALID,918.328,VALID,0,VALID,100,VALID,-0.101885,VALID,20.8854,VALID,94,VALID,0,
2007-05-17, 00:25:00,VALID,918.32,VALID,0,VALID,100,VALID,-0.101885,VALID,20.9078,VALID,94,VALID,0,
2007-05-17, 00:26:00,VALID,918.309,VALID,0,VALID,100,VALID,-0.101885,VALID,20.9113,VALID,94,VALID,0,
2007-05-17, 00:27:00,VALID,918.295,VALID,0,VALID,100,VALID,-0.101885,VALID,20.9116,VALID,94,VALID,0,
2007-05-17, 00:28:00,VALID,918.29,VALID,0,VALID,100,VALID,-0.118866,VALID,20.8726,VALID,94,VALID,0,
2007-05-17, 00:29:00,VALID,918.259,VALID,0,VALID,100,VALID,-0.0339617,VALID,20.8326,VALID,94,VALID,0.0412109,
2007-05-17, 00:30:00,VALID,918.237,VALID,0,VALID,100,VALID,-0.0169808,VALID,20.8126,VALID,94,VALID,0.354167,
2007-05-17, 00:31:00,VALID,918.214,VALID,0,VALID,100,VALID,-0.0509425,VALID,20.8197,VALID,100,VALID,0.414453,
2007-05-17, 00:32:00,VALID,918.199,VALID,0,VALID,100,VALID,-0.0339617,VALID,20.8297,VALID,120,VALID,0.554688,
2007-05-17, 00:33:00,VALID,918.185,VALID,0,VALID,100,VALID,-0.0169808,VALID,20.8356,VALID,130,VALID,0.489644,
2007-05-17, 00:34:00,VALID,918.157,VALID,0,VALID,100,VALID,-0.0169808,VALID,20.8651,VALID,133,VALID,0.558117,
2007-05-17, 00:35:00,VALID,918.149,VALID,0,VALID,100,VALID,-0.0679233,VALID,20.8548,VALID,138,VALID,0.479539,
2007-05-17, 00:36:00,VALID,918.133,VALID,0,VALID,100,VALID,-0.0339617,VALID,20.8421,VALID,138,VALID,0.529102,
2007-05-17, 00:37:00,VALID,918.132,VALID,0,VALID,100,VALID,-0.0339617,VALID,20.8329,VALID,138,VALID,0.757986,
2007-05-17, 00:38:00,VALID,918.12,VALID,0,VALID,100,VALID,-0.0509425,VALID,20.7972,VALID,132,VALID,0.652435,
2007-05-17, 00:39:00,VALID,918.107,VALID,0,VALID,100,VALID,-0.0169808,VALID,20.7515,VALID,111,VALID,0.544876,
2007-05-17, 00:40:00,VALID,918.09,VALID,0,VALID,100,VALID,-0.0509425,VALID,20.6766,VALID,108,VALID,0.604802,
2007-05-17, 00:41:00,VALID,918.072,VALID,0,VALID,100,VALID,-0.0849042,VALID,20.6354,VALID,108,VALID,0.342797,
2007-05-17, 00:42:00,VALID,918.061,VALID,0,VALID,100,VALID,-0.0339617,VALID,20.57,VALID,108,VALID,0.213224,
2007-05-17, 00:43:00,VALID,918.037,VALID,0,VALID,100,VALID,-0.0339617,VALID,20.5303,VALID,108,VALID,0.26029,
2007-05-17, 00:44:00,VALID,918.006,VALID,0,VALID,100,VALID,-0.0169808,VALID,20.5276,VALID,108,VALID,0.144531,
2007-05-17, 00:45:00,VALID,917.995,VALID,0,VALID,100,VALID,-0.0339617,VALID,20.5076,VALID,108,VALID,0.21596,
2007-05-17, 00:46:00,VALID,917.976,VALID,0,VALID,100,VALID,-0.0169808,VALID,20.4946,VALID,108,VALID,0.489583,
2007-05-17, 00:47:00,VALID,917.972,VALID,0,VALID,100,VALID,0,VALID,20.5276,VALID,108,VALID,0.517027,
2007-05-17, 00:48:00,VALID,917.962,VALID,0,VALID,100,VALID,-0.0679233,VALID,20.573,VALID,108,VALID,0.308494,
2007-05-17, 00:49:00,VALID,917.965,VALID,0,VALID,100,VALID,0,VALID,20.5597,VALID,108,VALID,0,
2007-05-17, 00:50:00,VALID,917.983,VALID,0,VALID,100,VALID,-0.0509425,VALID,20.5203,VALID,108,VALID,0.00133384,
2007-05-17, 00:51:00,VALID,918,VALID,0,VALID,100,VALID,-0.0169808,VALID,20.5013,VALID,108,VALID,0.0265262,
2007-05-17, 00:52:00,VALID,918.011,VALID,0,VALID,100,VALID,0,VALID,20.5205,VALID,1,VALID,0.359184,
2007-05-17, 00:53:00,VALID,918.016,VALID,0,VALID,100,VALID,-0.0339617,VALID,20.5595,VALID,355,VALID,0.254179,
2007-05-17, 00:54:00,VALID,918.013,VALID,0,VALID,100,VALID,-0.0679233,VALID,20.6149,VALID,354,VALID,0.158306,
2007-05-17, 00:55:00,VALID,918.01,VALID,0,VALID,100,VALID,-0.0509425,VALID,20.6828,VALID,354,VALID,0,
2007-05-17, 00:56:00,VALID,917.989,VALID,0,VALID,100,VALID,-0.0679233,VALID,20.715,VALID,354,VALID,0,
2007-05-17, 00:57:00,VALID,917.96,VALID,0,VALID,100,VALID,0,VALID,20.7572,VALID,354,VALID,0,
2007-05-17, 00:58:00,VALID,917.971,VALID,0,VALID,100,VALID,-0.0339617,VALID,20.7607,VALID,354,VALID,0,
2007-05-17, 00:59:00,VALID,917.955,VALID,0,VALID,100,VALID,-0.0509425,VALID,20.7447,VALID,354,VALID,0,
2007-05-17, 01:00:00,VALID,917.937,VALID,0,VALID,100,VALID,-0.0169808,VALID,20.7445,VALID,354,VALID,0,
2007-05-17, 01:01:00,VALID,917.919,VALID,0,VALID,100,VALID,-0.0339617,VALID,20.7153,VALID,354,VALID,0.0375,
2007-05-17, 01:02:00,VALID,917.9,VALID,0,VALID,100,VALID,-0.0339617,VALID,20.709,VALID,354,VALID,0.182355,
2007-05-17, 01:03:00,VALID,917.886,VALID,0,VALID,100,VALID,-0.0849042,VALID,20.6666,VALID,354,VALID,0.267485,
2007-05-17, 01:04:00,VALID,917.884,VALID,0,VALID,100,VALID,-0.0169808,VALID,20.6406,VALID,354,VALID,0.0662202,
2007-05-17, 01:05:00,VALID,917.889,VALID,0,VALID,100,VALID,-0.0339617,VALID,20.6444,VALID,354,VALID,0,
2007-05-17, 01:06:00,VALID,917.904,VALID,0,VALID,100,VALID,-0.0849042,VALID,20.6639,VALID,354,VALID,0,
2007-05-17, 01:07:00,VALID,917.901,VALID,0,VALID,100,VALID,-0.0169808,VALID,20.6706,VALID,354,VALID,0,
2007-05-17, 01:08:00,VALID,917.905,VALID,0,VALID,100,VALID,-0.101885,VALID,20.6744,VALID,354,VALID,0,
2007-05-17, 01:09:00,VALID,917.893,VALID,0,VALID,100,VALID,-0.0849042,VALID,20.6604,VALID,330,VALID,0.0921148,
2007-05-17, 01:10:00,VALID,917.892,VALID,0,VALID,100,VALID,-0.0169808,VALID,20.6539,VALID,200,VALID,0.321584,
2007-05-17, 01:11:00,VALID,917.891,VALID,0,VALID,100,VALID,-0.0509425,VALID,20.6639,VALID,199,VALID,0.282885,
2007-05-17, 01:12:00,VALID,917.878,VALID,0,VALID,100,VALID,-0.0339617,VALID,20.6798,VALID,199,VALID,0.10766,
2007-05-17, 01:13:00,VALID,917.854,VALID,0,VALID,100,VALID,0,VALID,20.6858,VALID,199,VALID,0,
2007-05-17, 01:14:00,VALID,917.841,VALID,0,VALID,100,VALID,-0.0509425,VALID,20.6958,VALID,199,VALID,0,
2007-05-17, 01:15:00,VALID,917.824,VALID,0,VALID,100,VALID,-0.0169808,VALID,20.7285,VALID,199,VALID,0,
2007-05-17, 01:16:00,VALID,917.809,VALID,0,VALID,100,VALID,-0.0339617,VALID,20.7377,VALID,199,VALID,0,
2007-05-17, 01:17:00,VALID,917.805,VALID,0,VALID,100,VALID,-0.0169808,VALID,20.741,VALID,199,VALID,0,
2007-05-17, 01:18:00,VALID,917.787,VALID,0,VALID,100,VALID,-0.0169808,VALID,20.7375,VALID,199,VALID,0,
2007-05-17, 01:19:00,VALID,917.779,VALID,0,VALID,100,VALID,-0.0169808,VALID,20.7275,VALID,199,VALID,0,
2007-05-17, 01:20:00,VALID,917.773,VALID,0,VALID,100,VALID,0,VALID,20.7183,VALID,199,VALID,0,
2007-05-17, 01:21:00,VALID,917.762,VALID,0,VALID,100,VALID,-0.0339617,VALID,20.7053,VALID,199,VALID,0,
2007-05-17, 01:22:00,VALID,917.748,VALID,0,VALID,100,VALID,0,VALID,20.7085,VALID,199,VALID,0,
2007-05-17, 01:23:00,VALID,917.724,VALID,0,VALID,100,VALID,-0.0169808,VALID,20.7058,VALID,199,VALID,0,
2007-05-17, 01:24:00,VALID,917.714,VALID,0,VALID,100,VALID,0,VALID,20.7118,VALID,199,VALID,0.0648619,
2007-05-17, 01:25:00,VALID,917.707,VALID,0,VALID,100,VALID,-0.0169808,VALID,20.7085,VALID,199,VALID,0.047433,
2007-05-17, 01:26:00,VALID,917.706,VALID,0,VALID,100,VALID,-0.0169808,VALID,20.692,VALID,199,VALID,0,
2007-05-17, 01:27:00,VALID,917.703,VALID,0,VALID,100,VALID,-0.0169808,VALID,20.6728,VALID,199,VALID,0,
2007-05-17, 01:28:00,VALID,917.694,VALID,0,VALID,100,VALID,0,VALID,20.6533,VALID,199,VALID,0,
2007-05-17, 01:29:00,VALID,917.692,VALID,0,VALID,100,VALID,-0.0849042,VALID,20.6441,VALID,199,VALID,0.217147,
2007-05-17, 01:30:00,VALID,917.673,VALID,0,VALID,100,VALID,-0.0509425,VALID,20.6147,VALID,184,VALID,0.524148,
2007-05-17, 01:31:00,VALID,917.668,VALID,0,VALID,100,VALID,-0.0339617,VALID,20.566,VALID,171,VALID,0.491235,
2007-05-17, 01:32:00,VALID,917.642,VALID,0,VALID,100,VALID,-0.0509425,VALID,20.54,VALID,145,VALID,0.6875,
2007-05-17, 01:33:00,VALID,917.623,VALID,0,VALID,100,VALID,-0.0849042,VALID,20.5141,VALID,143,VALID,0.627003,
2007-05-17, 01:34:00,VALID,917.603,VALID,0,VALID,100,VALID,-0.0509425,VALID,20.4911,VALID,143,VALID,0.48331,
2007-05-17, 01:35:00,VALID,917.597,VALID,0,VALID,100,VALID,-0.0509425,VALID,20.4781,VALID,144,VALID,0.494336,
2007-05-17, 01:36:00,VALID,917.577,VALID,0,VALID,100,VALID,-0.0339617,VALID,20.4684,VALID,158,VALID,0.668527,
2007-05-17, 01:37:00,VALID,917.555,VALID,0,VALID,100,VALID,-0.0509425,VALID,20.4556,VALID,159,VALID,0.803977,
2007-05-17, 01:38:00,VALID,917.54,VALID,0,VALID,100,VALID,-0.0509425,VALID,20.4494,VALID,156,VALID,0.946875,
2007-05-17, 01:39:00,VALID,917.529,VALID,0,VALID,100,VALID,-0.0679233,VALID,20.4656,VALID,154,VALID,1.04179,
2007-05-17, 01:40:00,VALID,917.512,VALID,0,VALID,100,VALID,0,VALID,20.4713,VALID,149,VALID,0.7875,
2007-05-17, 01:41:00,VALID,917.5,VALID,0,VALID,100,VALID,-0.0509425,VALID,20.4816,VALID,147,VALID,0.885099,
2007-05-17, 01:42:00,VALID,917.492,VALID,0,VALID,100,VALID,-0.0339617,VALID,20.4976,VALID,141,VALID,0.607922,
2007-05-17, 01:43:00,VALID,917.484,VALID,0,VALID,100,VALID,-0.0339617,VALID,20.4746,VALID,125,VALID,1.00705,
2007-05-17, 01:44:00,VALID,917.483,VALID,0,VALID,100,VALID,0,VALID,20.4451,VALID,131,VALID,0.9375,
2007-05-17, 01:45:00,VALID,917.477,VALID,0,VALID,100,VALID,-0.0169808,VALID,20.4227,VALID,133,VALID,0.608259,
2007-05-17, 01:46:00,VALID,917.459,VALID,0,VALID,100,VALID,-0.0169808,VALID,20.4002,VALID,110,VALID,0.19798,
2007-05-17, 01:47:00,VALID,917.455,VALID,0,VALID,100,VALID,-0.0339617,VALID,20.4002,VALID,96,VALID,0.371911,
2007-05-17, 01:48:00,VALID,917.454,VALID,0,VALID,100,VALID,-0.0679233,VALID,20.3912,VALID,128,VALID,0.728237,
2007-05-17, 01:49:00,VALID,917.442,VALID,0,VALID,100,VALID,-0.0509425,VALID,20.368,VALID,138,VALID,0.983842,
2007-05-17, 01:50:00,VALID,917.448,VALID,0,VALID,100,VALID,0,VALID,20.3483,VALID,137,VALID,1.04897,
2007-05-17, 01:51:00,VALID,917.425,VALID,0,VALID,100,VALID,-0.0169808,VALID,20.3418,VALID,129,VALID,1.01358,
2007-05-17, 01:52:00,VALID,917.424,VALID,0,VALID,100,VALID,0,VALID,20.3353,VALID,127,VALID,1.02166,
2007-05-17, 01:53:00,VALID,917.403,VALID,0,VALID,100,VALID,0,VALID,20.3256,VALID,129,VALID,0.858994,
2007-05-17, 01:54:00,VALID,917.368,VALID,0,VALID,100,VALID,-0.0339617,VALID,20.3128,VALID,131,VALID,1.08931,
2007-05-17, 01:55:00,VALID,917.355,VALID,0,VALID,100,VALID,-0.0169808,VALID,20.3061,VALID,130,VALID,1.02251,
2007-05-17, 01:56:00,VALID,917.35,VALID,0,VALID,100,VALID,-0.0339617,VALID,20.3034,VALID,118,VALID,0.725291,
2007-05-17, 01:57:00,VALID,917.326,VALID,0,VALID,100,VALID,0,VALID,20.2931,VALID,119,VALID,0.981468,
2007-05-17, 01:58:00,VALID,917.323,VALID,0,VALID,100,VALID,-0.0679233,VALID,20.2901,VALID,132,VALID,0.88891,
2007-05-17, 01:59:00,VALID,917.31,VALID,0,VALID,100,VALID,-0.0679233,VALID,20.2806,VALID,140,VALID,0.872396,
2007-05-17, 02:00:00,VALID,917.296,VALID,0,VALID,100,VALID,-0.0509425,VALID,20.2704,VALID,140,VALID,0.646793,
2007-05-17, 02:01:00,VALID,917.259,VALID,0,VALID,100,VALID,-0.0509425,VALID,20.2612,VALID,133,VALID,0.863917,
2007-05-17, 02:02:00,VALID,917.234,VALID,0,VALID,100,VALID,-0.0679233,VALID,20.2577,VALID,132,VALID,0.670898,
2007-05-17, 02:03:00,VALID,917.225,VALID,0,VALID,100,VALID,-0.0509425,VALID,20.2514,VALID,122,VALID,0.314986,
2007-05-17, 02:04:00,VALID,917.207,VALID,0,VALID,100,VALID,-0.0509425,VALID,20.2447,VALID,116,VALID,0.607195,
2007-05-17, 02:05:00,VALID,917.195,VALID,0,VALID,100,VALID,-0.0679233,VALID,20.2352,VALID,109,VALID,0.677912,
2007-05-17, 02:06:00,VALID,917.203,VALID,0,VALID,100,VALID,-0.0509425,VALID,20.2052,VALID,120,VALID,0.866211,
2007-05-17, 02:07:00,VALID,917.174,VALID,0,VALID,100,VALID,-0.0169808,VALID,20.2152,VALID,131,VALID,0.821987,
2007-05-17, 02:08:00,VALID,917.179,VALID,0,VALID,100,VALID,-0.0339617,VALID,20.223,VALID,127,VALID,0.802202,
2007-05-17, 02:09:00,VALID,917.191,VALID,0,VALID,100,VALID,-0.0339617,VALID,20.2025,VALID,125,VALID,0.602653,
2007-05-17, 02:10:00,VALID,917.188,VALID,0,VALID,100,VALID,-0.0339617,VALID,20.209,VALID,129,VALID,0.804688,
2007-05-17, 02:11:00,VALID,917.177,VALID,0,VALID,100,VALID,-0.0169808,VALID,20.209,VALID,134,VALID,0.809095,
2007-05-17, 02:12:00,VALID,917.148,VALID,0,VALID,100,VALID,-0.0169808,VALID,20.2225,VALID,139,VALID,0.563834,
2007-05-17, 02:13:00,VALID,917.128,VALID,0,VALID,100,VALID,-0.0339617,VALID,20.2152,VALID,143,VALID,0.724023,
2007-05-17, 02:14:00,VALID,917.105,VALID,0,VALID,100,VALID,-0.0509425,VALID,20.2212,VALID,149,VALID,0.923363,
2007-05-17, 02:15:00,VALID,917.083,VALID,0,VALID,100,VALID,-0.0169808,VALID,20.2447,VALID,157,VALID,0.979911,
2007-05-17, 02:16:00,VALID,917.06,VALID,0,VALID,100,VALID,0,VALID,20.2539,VALID,158,VALID,0.797433,
2007-05-17, 02:17:00,VALID,917.049,VALID,0,VALID,100,VALID,-0.0339617,VALID,20.2639,VALID,140,VALID,0.771984,
2007-05-17, 02:18:00,VALID,917.037,VALID,0,VALID,100,VALID,-0.0169808,VALID,20.2836,VALID,149,VALID,0.799924,
2007-05-17, 02:19:00,VALID,917.046,VALID,0,VALID,100,VALID,0,VALID,20.2796,VALID,154,VALID,0.638368,
2007-05-17, 02:20:00,VALID,917.054,VALID,0,VALID,100,VALID,-0.0509425,VALID,20.2834,VALID,153,VALID,0.513263,
2007-05-17, 02:21:00,VALID,917.067,VALID,0,VALID,100,VALID,0,VALID,20.2734,VALID,156,VALID,0.540661,
2007-05-17, 02:22:00,VALID,917.062,VALID,0,VALID,100,VALID,-0.0169808,VALID,20.2734,VALID,161,VALID,0.523438,
2007-05-17, 02:23:00,VALID,917.067,VALID,0,VALID,100,VALID,-0.0339617,VALID,20.2604,VALID,164,VALID,0.762962,
2007-05-17, 02:24:00,VALID,917.057,VALID,0,VALID,100,VALID,0,VALID,20.2769,VALID,168,VALID,0.768288,
2007-05-17, 02:25:00,VALID,917.062,VALID,0,VALID,100,VALID,-0.0339617,VALID,20.2701,VALID,173,VALID,0.742543,
2007-05-17, 02:26:00,VALID,917.052,VALID,0,VALID,100,VALID,-0.0169808,VALID,20.2769,VALID,175,VALID,0.592988,
2007-05-17, 02:27:00,VALID,917.051,VALID,0,VALID,100,VALID,-0.0339617,VALID,20.2766,VALID,165,VALID,0.657848,
2007-05-17, 02:28:00,VALID,917.058,VALID,0,VALID,100,VALID,-0.0169808,VALID,20.2801,VALID,166,VALID,0.705915,
2007-05-17, 02:29:00,VALID,917.065,VALID,0,VALID,100,VALID,0,VALID,20.2661,VALID,161,VALID,0.890092,
2007-05-17, 02:30:00,VALID,917.069,VALID,0,VALID,100,VALID,0,VALID,20.2834,VALID,162,VALID,0.978423,
2007-05-17, 02:31:00,VALID,917.078,VALID,0,VALID,100,VALID,0.0339617,VALID,20.2761,VALID,165,VALID,0.803735,
2007-05-17, 02:32:00,VALID,917.08,VALID,0,VALID,100,VALID,0,VALID,20.2764,VALID,161,VALID,0.56108,
2007-05-17, 02:33:00,VALID,917.085,VALID,0,VALID,100,VALID,-0.0169808,VALID,20.2831,VALID,161,VALID,0.630451,
2007-05-17, 02:34:00,VALID,917.074,VALID,0,VALID,100,VALID,-0.0339617,VALID,20.2834,VALID,168,VALID,0.421512,
2007-05-17, 02:35:00,VALID,917.068,VALID,0,VALID,100,VALID,0,VALID,20.2834,VALID,172,VALID,0.125908,
2007-05-17, 02:36:00,VALID,917.066,VALID,0,VALID,100,VALID,-0.0339617,VALID,20.2831,VALID,174,VALID,0.293857,
2007-05-17, 02:37:00,VALID,917.067,VALID,0,VALID,100,VALID,-0.0169808,VALID,20.2861,VALID,193,VALID,0.317951,
2007-05-17, 02:38:00,VALID,917.054,VALID,0,VALID,100,VALID,-0.0169808,VALID,20.2988,VALID,193,VALID,0.35445,
2007-05-17, 02:39:00,VALID,917.053,VALID,0,VALID,100,VALID,-0.0169808,VALID,20.3186,VALID,184,VALID,0.100852,
2007-05-17, 02:40:00,VALID,917.067,VALID,0,VALID,100,VALID,0,VALID,20.3188,VALID,184,VALID,0.0386991,
2007-05-17, 02:41:00,VALID,917.065,VALID,0,VALID,100,VALID,0.0169808,VALID,20.3151,VALID,184,VALID,0,
2007-05-17, 02:42:00,VALID,917.076,VALID,0,VALID,100,VALID,-0.0169808,VALID,20.3221,VALID,184,VALID,0,
2007-05-17, 02:43:00,VALID,917.083,VALID,0,VALID,100,VALID,0,VALID,20.3221,VALID,184,VALID,0,
2007-05-17, 02:44:00,VALID,917.086,VALID,0,VALID,100,VALID,-0.0339617,VALID,20.3283,VALID,184,VALID,0.0192587,
2007-05-17, 02:45:00,VALID,917.103,VALID,0,VALID,100,VALID,0,VALID,20.3413,VALID,184,VALID,0.00247713,
2007-05-17, 02:46:00,VALID,917.101,VALID,0,VALID,100,VALID,0,VALID,20.3543,VALID,184,VALID,0.0448289,
2007-05-17, 02:47:00,VALID,917.116,VALID,0,VALID,100,VALID,0,VALID,20.3475,VALID,184,VALID,0.31686,
2007-05-17, 02:48:00,VALID,917.116,VALID,0,VALID,100,VALID,0.0339617,VALID,20.347,VALID,181,VALID,0.279883,
2007-05-17, 02:49:00,VALID,917.114,VALID,0,VALID,100,VALID,0,VALID,20.3505,VALID,163,VALID,0.341933,
2007-05-17, 02:50:00,VALID,917.12,VALID,0,VALID,100,VALID,0,VALID,20.3505,VALID,155,VALID,0.395275,
2007-05-17, 02:51:00,VALID,917.105,VALID,0,VALID,100,VALID,-0.0169808,VALID,20.3545,VALID,146,VALID,0.596657,
2007-05-17, 02:52:00,VALID,917.091,VALID,0,VALID,100,VALID,-0.0509425,VALID,20.3415,VALID,127,VALID,0.519531,
2007-05-17, 02:53:00,VALID,917.076,VALID,0,VALID,100,VALID,-0.0339617,VALID,20.3418,VALID,110,VALID,0.680414,
2007-05-17, 02:54:00,VALID,917.058,VALID,0,VALID,100,VALID,0,VALID,20.3378,VALID,101,VALID,0.679142,
2007-05-17, 02:55:00,VALID,917.044,VALID,0,VALID,100,VALID,-0.0169808,VALID,20.345,VALID,102,VALID,0.820676,
2007-05-17, 02:56:00,VALID,917.003,VALID,0,VALID,100,VALID,0,VALID,20.335,VALID,89,VALID,1.21023,
2007-05-17, 02:57:00,VALID,916.988,VALID,0,VALID,100,VALID,0,VALID,20.3313,VALID,76,VALID,1.35938,
2007-05-17, 02:58:00,VALID,916.945,VALID,0,VALID,100,VALID,0,VALID,20.2948,VALID,78,VALID,1.27077,
2007-05-17, 02:59:00,VALID,916.926,VALID,0,VALID,100,VALID,0,VALID,20.2856,VALID,87,VALID,1.03497,
2007-05-17, 03:00:00,VALID,916.911,VALID,0,VALID,100,VALID,-0.0169808,VALID,20.2666,VALID,97,VALID,0.870508,
2007-05-17, 03:01:00,VALID,916.922,VALID,0,VALID,100,VALID,0.0169808,VALID,20.2472,VALID,110,VALID,0.741044,
2007-05-17, 03:02:00,VALID,916.913,VALID,0,VALID,100,VALID,-0.0169808,VALID,20.2245,VALID,121,VALID,0.888477,
2007-05-17, 03:03:00,VALID,916.946,VALID,0,VALID,100,VALID,0,VALID,20.2182,VALID,129,VALID,0.802641,
2007-05-17, 03:04:00,VALID,916.964,VALID,0,VALID,100,VALID,0,VALID,20.202,VALID,146,VALID,0.742898,
2007-05-17, 03:05:00,VALID,916.986,VALID,0,VALID,100,VALID,0.0169808,VALID,20.2055,VALID,162,VALID,0.830556,
2007-05-17, 03:06:00,VALID,917.001,VALID,0,VALID,100,VALID,0,VALID,20.205,VALID,158,VALID,1.0258,
2007-05-17, 03:07:00,VALID,916.99,VALID,0,VALID,100,VALID,-0.0339617,VALID,20.215,VALID,122,VALID,0.595424,
2007-05-17, 03:08:00,VALID,916.981,VALID,0,VALID,100,VALID,0,VALID,20.2315,VALID,129,VALID,1.04669,
2007-05-17, 03:09:00,VALID,916.975,VALID,0,VALID,100,VALID,-0.0169808,VALID,20.2147,VALID,148,VALID,1.13643,
2007-05-17, 03:10:00,VALID,916.956,VALID,0,VALID,100,VALID,-0.0169808,VALID,20.2182,VALID,137,VALID,1.117,
2007-05-17, 03:11:00,VALID,916.951,VALID,0,VALID,100,VALID,0.0169808,VALID,20.2245,VALID,155,VALID,0.811592,
2007-05-17, 03:12:00,VALID,916.942,VALID,0,VALID,100,VALID,-0.0339617,VALID,20.2442,VALID,142,VALID,0.87718,
2007-05-17, 03:13:00,VALID,916.937,VALID,0,VALID,100,VALID,-0.0679233,VALID,20.2512,VALID,147,VALID,0.798971,
2007-05-17, 03:14:00,VALID,916.936,VALID,0,VALID,100,VALID,-0.0509425,VALID,20.2547,VALID,141,VALID,1.03811,
2007-05-17, 03:15:00,VALID,916.936,VALID,0,VALID,100,VALID,-0.0509425,VALID,20.2412,VALID,145,VALID,0.715588,
2007-05-17, 03:16:00,VALID,916.925,VALID,0,VALID,100,VALID,-0.0169808,VALID,20.2574,VALID,143,VALID,0.81593,
2007-05-17, 03:17:00,VALID,916.918,VALID,0,VALID,100,VALID,-0.0339617,VALID,20.2434,VALID,143,VALID,1.06064,
2007-05-17, 03:18:00,VALID,916.904,VALID,0,VALID,100,VALID,0,VALID,20.2604,VALID,143,VALID,1.02493,
2007-05-17, 03:19:00,VALID,916.886,VALID,0,VALID,100,VALID,0,VALID,20.2439,VALID,134,VALID,0.883168,
2007-05-17, 03:20:00,VALID,916.869,VALID,0,VALID,100,VALID,-0.0339617,VALID,20.2442,VALID,150,VALID,1.06286,
2007-05-17, 03:21:00,VALID,916.867,VALID,0,VALID,100,VALID,0,VALID,20.2437,VALID,135,VALID,0.980808,
2007-05-17, 03:22:00,VALID,916.853,VALID,0,VALID,100,VALID,0.0169808,VALID,20.2372,VALID,133,VALID,0.988782,
2007-05-17, 03:23:00,VALID,916.84,VALID,0,VALID,100,VALID,0,VALID,20.2407,VALID,141,VALID,1.29929,
2007-05-17, 03:24:00,VALID,916.85,VALID,0,VALID,100,VALID,-0.0509425,VALID,20.2412,VALID,146,VALID,0.700284,
2007-05-17, 03:25:00,VALID,916.846,VALID,0,VALID,100,VALID,0,VALID,20.2309,VALID,141,VALID,1.34235,
2007-05-17, 03:26:00,VALID,916.84,VALID,0,VALID,100,VALID,-0.0339617,VALID,20.2444,VALID,147,VALID,1.08557,
2007-05-17, 03:27:00,VALID,916.83,VALID,0,VALID,100,VALID,0,VALID,20.2474,VALID,147,VALID,1.00373,
2007-05-17, 03:28:00,VALID,916.812,VALID,0,VALID,100,VALID,0,VALID,20.2537,VALID,138,VALID,1.12589,
2007-05-17, 03:29:00,VALID,916.793,VALID,0,VALID,100,VALID,0,VALID,20.2509,VALID,144,VALID,0.865327,
2007-05-17, 03:30:00,VALID,916.791,VALID,0,VALID,100,VALID,-0.0339617,VALID,20.2604,VALID,137,VALID,1.09393,
2007-05-17, 03:31:00,VALID,916.775,VALID,0,VALID,100,VALID,0,VALID,20.2704,VALID,138,VALID,1.23147,
2007-05-17, 03:32:00,VALID,916.767,VALID,0,VALID,100,VALID,-0.0169808,VALID,20.2869,VALID,138,VALID,1.24491,
2007-05-17, 03:33:00,VALID,916.767,VALID,0,VALID,100,VALID,0,VALID,20.2923,VALID,146,VALID,1.14964,
2007-05-17, 03:34:00,VALID,916.763,VALID,0,VALID,100,VALID,0,VALID,20.3186,VALID,153,VALID,1.22148,
2007-05-17, 03:35:00,VALID,916.75,VALID,0,VALID,100,VALID,0,VALID,20.3253,VALID,154,VALID,1.4008,
2007-05-17, 03:36:00,VALID,916.741,VALID,0,VALID,100,VALID,-0.0339617,VALID,20.345,VALID,156,VALID,1.51987,
2007-05-17, 03:37:00,VALID,916.738,VALID,0,VALID,100,VALID,-0.0339617,VALID,20.3385,VALID,153,VALID,1.48819,
2007-05-17, 03:38:00,VALID,916.725,VALID,0,VALID,100,VALID,-0.0169808,VALID,20.3385,VALID,161,VALID,1.19062,
2007-05-17, 03:39:00,VALID,916.731,VALID,0,VALID,100,VALID,0,VALID,20.3353,VALID,157,VALID,1.225,
2007-05-17, 03:40:00,VALID,916.733,VALID,0,VALID,100,VALID,0,VALID,20.3385,VALID,151,VALID,1.22696,
2007-05-17, 03:41:00,VALID,916.732,VALID,0,VALID,100,VALID,-0.0169808,VALID,20.3151,VALID,153,VALID,0.796875,
2007-05-17, 03:42:00,VALID,916.725,VALID,0,VALID,100,VALID,0,VALID,20.3158,VALID,153,VALID,1.16122,
2007-05-17, 03:43:00,VALID,916.715,VALID,0,VALID,100,VALID,-0.0169808,VALID,20.3188,VALID,148,VALID,0.550327,